Location: Gniazdowice
(50.2124°N, 20.2673°E)
Time: 01:58:15
(UTC+00:00)

H-2A R/B - Pass Details

Date: 23 May 2024
Orbit: 553 x 571 km, 98.1° (Epoch: 18 June)

Event Time Altitude Azimuth Distance (km) Brightness Sun altitude
Rises 00:35:40 0° 14° (NNE) 2,760 8.5 -14.3°
Reaches altitude 10° 00:37:49 10° 14° (NNE) 1,856 7.3 -14.2°
Maximum altitude 00:41:50 89° 107° (ESE) 564 3.3 -13.9°
Enters shadow 00:44:21 22° 195° (SSW) 1,244 4.5 -13.7°
